• în România
  • Lista ţărilor
  • Pe 7 zile
  • Temperatura apei
  • Hartă satelitară
  • Meteo pe hartă
  • Widget-uri
  • user-avatar
    Intrare

    Meteo pe oră la Rassekino

    Astăzi, 27 Mai, Duminică

    Timp Temperatura Precipitaţii Vânt Presiune Umiditate
    00:00 +9°C° 0 mm 2 m/s 759 mmHg 68%
    01:00 +8°C° 0 mm 2 m/s 759 mmHg 69%
    02:00 +8°C° 0 mm 2 m/s 759 mmHg 71%
    03:00 +8°C° 0 mm 2 m/s 760 mmHg 72%
    04:00 +8°C° 0 mm 2 m/s 759 mmHg 73%
    05:00 +9°C° 0 mm 2 m/s 759 mmHg 74%
    06:00 +9°C° 0 mm 2 m/s 759 mmHg 75%
    07:00 +12°C° 0 mm 2 m/s 759 mmHg 70%
    08:00 +13°C° 0 mm 3 m/s 759 mmHg 65%
    09:00 +14°C° 0 mm 3 m/s 758 mmHg 59%
    10:00 +16°C° 0 mm 3 m/s 758 mmHg 56%
    11:00 +18°C° 0 mm 3 m/s 758 mmHg 53%
    12:00 +19°C° 0 mm 4 m/s 757 mmHg 50%
    13:00 +19°C° 0 mm 4 m/s 757 mmHg 51%
    14:00 +19°C° 0 mm 4 m/s 756 mmHg 51%
    15:00 +20°C° 0 mm 5 m/s 756 mmHg 52%
    16:00 +20°C° 0 mm 4 m/s 755 mmHg 56%
    17:00 +19°C° 0 mm 4 m/s 754 mmHg 60%
    18:00 +19°C° 0 mm 4 m/s 754 mmHg 64%
    19:00 +18°C° 0 mm 4 m/s 754 mmHg 69%
    20:00 +15°C° 0 mm 4 m/s 753 mmHg 74%
    21:00 +14°C° 0 mm 4 m/s 753 mmHg 79%
    22:00 +13°C° 0 mm 4 m/s 753 mmHg 79%
    23:00 +13°C° 0 mm 4 m/s 753 mmHg 79%

    Mâine, 28 Mai, Luni

    Timp Temperatura Precipitaţii Vânt Presiune Umiditate
    00:00 +12°C° 0 mm 4 m/s 753 mmHg 79%
    01:00 +12°C° 0 mm 4 m/s 753 mmHg 81%
    02:00 +12°C° 0 mm 4 m/s 753 mmHg 82%
    03:00 +12°C° 0 mm 3 m/s 753 mmHg 84%
    04:00 +12°C° 0 mm 3 m/s 754 mmHg 85%
    05:00 +12°C° 0 mm 3 m/s 754 mmHg 87%
    06:00 +13°C° 0 mm 3 m/s 754 mmHg 88%
    07:00 +14°C° 0 mm 4 m/s 754 mmHg 82%
    08:00 +15°C° 0 mm 4 m/s 755 mmHg 76%
    09:00 +17°C° 0 mm 4 m/s 755 mmHg 70%
    10:00 +18°C° 0 mm 4 m/s 755 mmHg 65%
    11:00 +17°C° 0 mm 5 m/s 756 mmHg 60%
    12:00 +19°C° 0 mm 5 m/s 756 mmHg 55%
    13:00 +19°C° 0 mm 5 m/s 756 mmHg 52%
    14:00 +19°C° 0 mm 5 m/s 756 mmHg 50%
    15:00 +19°C° 0 mm 5 m/s 756 mmHg 48%
    16:00 +17°C° 0 mm 5 m/s 756 mmHg 51%
    17:00 +18°C° 0 mm 4 m/s 756 mmHg 54%
    18:00 +17°C° 0 mm 4 m/s 756 mmHg 56%
    19:00 +14°C° 0 mm 4 m/s 757 mmHg 60%
    20:00 +12°C° 0 mm 3 m/s 757 mmHg 63%
    21:00 +11°C° 0 mm 3 m/s 757 mmHg 67%
    22:00 +10°C° 0 mm 3 m/s 758 mmHg 67%
    23:00 +9°C° 0 mm 2 m/s 758 mmHg 66%

    Poimâine, 29 Mai, Marţi

    Timp Temperatura Precipitaţii Vânt Presiune Umiditate
    00:00 +8°C° 0 mm 2 m/s 758 mmHg 66%
    01:00 +8°C° 0 mm 2 m/s 758 mmHg 67%
    02:00 +8°C° 0 mm 1 m/s 759 mmHg 68%
    03:00 +8°C° 0 mm 1 m/s 759 mmHg 69%
    04:00 +9°C° 0 mm 1 m/s 759 mmHg 69%
    05:00 +10°C° 0 mm 1 m/s 759 mmHg 68%
    06:00 +10°C° 0 mm 1 m/s 759 mmHg 68%
    07:00 +12°C° 0 mm 1 m/s 759 mmHg 63%
    08:00 +14°C° 0 mm 1 m/s 759 mmHg 58%
    09:00 +15°C° 0 mm 1 m/s 759 mmHg 53%
    10:00 +16°C° 0 mm 2 m/s 758 mmHg 50%
    11:00 +17°C° 0 mm 2 m/s 758 mmHg 48%
    12:00 +18°C° 0 mm 2 m/s 757 mmHg 46%
    13:00 +19°C° 0 mm 2 m/s 757 mmHg 46%
    14:00 +20°C° 0 mm 2 m/s 756 mmHg 47%
    15:00 +20°C° 0 mm 3 m/s 756 mmHg 47%
    16:00 +20°C° 0 mm 3 m/s 755 mmHg 51%
    17:00 +20°C° 0 mm 3 m/s 755 mmHg 55%
    18:00 +20°C° 0 mm 3 m/s 754 mmHg 59%
    19:00 +18°C° 0 mm 3 m/s 754 mmHg 64%
    20:00 +16°C° 0 mm 3 m/s 753 mmHg 68%
    21:00 +13°C° 0 mm 3 m/s 753 mmHg 73%
    22:00 +13°C° 0 mm 3 m/s 753 mmHg 75%
    23:00 +12°C° 0 mm 3 m/s 752 mmHg 76%

    30 Mai, Miercuri

    Timp Temperatura Precipitaţii Vânt Presiune Umiditate
    00:00 +11°C° 0 mm 3 m/s 752 mmHg 78%
    01:00 +11°C° 0 mm 4 m/s 752 mmHg 79%
    02:00 +11°C° 0 mm 4 m/s 751 mmHg 79%
    03:00 +11°C° 0 mm 4 m/s 751 mmHg 80%
    04:00 +11°C° 0 mm 4 m/s 751 mmHg 80%
    05:00 +12°C° 0 mm 5 m/s 750 mmHg 79%
    06:00 +12°C° 0 mm 5 m/s 750 mmHg 79%
    07:00 +14°C° 0 mm 5 m/s 749 mmHg 76%
    08:00 +16°C° 0 mm 6 m/s 749 mmHg 73%
    09:00 +19°C° 0 mm 6 m/s 748 mmHg 69%
    10:00 +20°C° 0 mm 6 m/s 748 mmHg 67%
    11:00 +21°C° 0 mm 7 m/s 747 mmHg 65%
    12:00 +23°C° 0 mm 7 m/s 747 mmHg 63%
    13:00 +23°C° 0 mm 7 m/s 746 mmHg 62%
    14:00 +24°C° 0 mm 7 m/s 745 mmHg 62%
    15:00 +24°C° 0 mm 8 m/s 745 mmHg 61%
    16:00 +24°C° 0,2 mm 7 m/s 744 mmHg 65%
    17:00 +23°C° 0,2 mm 7 m/s 744 mmHg 69%
    18:00 +23°C° 0,2 mm 6 m/s 743 mmHg 72%
    19:00 +21°C° 0,2 mm 6 m/s 743 mmHg 77%
    20:00 +20°C° 0,2 mm 5 m/s 743 mmHg 81%
    21:00 +19°C° 0,2 mm 5 m/s 743 mmHg 85%
    22:00 +18°C° 0,1 mm 4 m/s 743 mmHg 87%
    23:00 +17°C° 0,1 mm 4 m/s 743 mmHg 89%

    31 Mai, Joi

    Timp Temperatura Precipitaţii Vânt Presiune Umiditate
    00:00 +17°C° 0,1 mm 3 m/s 742 mmHg 91%
    01:00 +16°C° 0 mm 3 m/s 742 mmHg 91%
    02:00 +16°C° 0 mm 2 m/s 742 mmHg 91%
    03:00 +16°C° 0 mm 2 m/s 742 mmHg 91%
    04:00 +16°C° 0,1 mm 2 m/s 742 mmHg 90%
    05:00 +16°C° 0,1 mm 2 m/s 741 mmHg 90%
    06:00 +16°C° 0,1 mm 2 m/s 741 mmHg 89%
    07:00 +14°C° 0,3 mm 3 m/s 741 mmHg 88%
    08:00 +14°C° 0,3 mm 3 m/s 742 mmHg 86%
    09:00 +14°C° 0,3 mm 4 m/s 742 mmHg 85%
    10:00 +14°C° 0,2 mm 4 m/s 742 mmHg 78%
    11:00 +15°C° 0,2 mm 4 m/s 742 mmHg 72%
    12:00 +17°C° 0,2 mm 4 m/s 742 mmHg 65%
    13:00 +17°C° 0,1 mm 4 m/s 743 mmHg 63%
    14:00 +16°C° 0,1 mm 5 m/s 743 mmHg 62%
    15:00 +17°C° 0,1 mm 5 m/s 743 mmHg 60%
    16:00 +16°C° 0,1 mm 5 m/s 743 mmHg 62%
    17:00 +17°C° 0,1 mm 4 m/s 743 mmHg 63%
    18:00 +15°C° 0,1 mm 4 m/s 743 mmHg 64%
    19:00 +14°C° 0 mm 4 m/s 744 mmHg 64%
    20:00 +12°C° 0 mm 4 m/s 744 mmHg 64%
    21:00 +11°C° 0 mm 4 m/s 744 mmHg 65%
    22:00 +10°C° 0 mm 4 m/s 745 mmHg 63%
    23:00 +8°C° 0 mm 4 m/s 745 mmHg 62%

    1 Iunie, Vineri

    Timp Temperatura Precipitaţii Vânt Presiune Umiditate
    00:00 +7°C° 0 mm 4 m/s 745 mmHg 60%
    01:00 +6°C° 0 mm 4 m/s 745 mmHg 62%
    02:00 +6°C° 0 mm 4 m/s 745 mmHg 64%
    03:00 +5°C° 0 mm 4 m/s 745 mmHg 65%
    04:00 +5°C° 0 mm 4 m/s 745 mmHg 67%
    05:00 +5°C° 0 mm 4 m/s 745 mmHg 69%
    06:00 +5°C° 0 mm 4 m/s 746 mmHg 71%
    07:00 +7°C° 0 mm 5 m/s 746 mmHg 67%
    08:00 +8°C° 0 mm 5 m/s 746 mmHg 64%
    09:00 +10°C° 0 mm 5 m/s 746 mmHg 60%
    10:00 +12°C° 0 mm 5 m/s 746 mmHg 57%
    11:00 +11°C° 0 mm 6 m/s 746 mmHg 54%
    12:00 +13°C° 0 mm 6 m/s 746 mmHg 51%
    13:00 +13°C° 0 mm 6 m/s 746 mmHg 51%
    14:00 +13°C° 0 mm 6 m/s 746 mmHg 51%
    15:00 +13°C° 0 mm 6 m/s 746 mmHg 51%
    16:00 +13°C° 0,1 mm 6 m/s 746 mmHg 54%
    17:00 +11°C° 0,1 mm 6 m/s 746 mmHg 56%
    18:00 +11°C° 0,1 mm 6 m/s 746 mmHg 59%
    19:00 +9°C° 0 mm 6 m/s 747 mmHg 59%
    20:00 +8°C° 0 mm 5 m/s 747 mmHg 60%
    21:00 +7°C° 0 mm 5 m/s 747 mmHg 60%
    22:00 +6°C° 0 mm 5 m/s 748 mmHg 60%
    23:00 +6°C° 0 mm 5 m/s 748 mmHg 60%
    Arată mai mult